Temp
8 7 7 6 6 6 6 6 8 10 13 13 14 14 14 15 15 14 15 16 17 17 18 18 18 18 19 21 22 25 25 25 25 25 24 23 23 22 23 23 23 22 24 25 24 22 22
8 7 7 6 6 6 6 6 9 12 11 13 13 13 15 15 15 15 16 17 18 18 19 19 19 19 20 21 24 24 25 24 24 25 24 23 24 24 23 23 23 23 23 21 21 22 22
7 7 6 6 6 5 5 6 11 12 12 12 13 13 14 15 15 16 18 19 19 19 19 20 20 20 20 22 24 25 24 24 24 24 23 25 25 25 24 22 23 23 23 21 21 19 21
6 6 6 6 5 5 5 7 11 12 13 12 13 13 14 15 16 17 19 20 20 21 21 21 21 20 21 24 24 24 24 23 24 25 25 26 25 24 23 22 21 21 20 20 22 19 22
6 6 6 5 5 5 7 9 9 13 13 12 13 13 13 15 16 18 21 21 21 22 22 22 22 21 21 24 24 24 23 22 23 25 26 25 25 22 21 20 18 17 20 21 20 19 21
6 6 5 5 5 5 7 8 12 13 13 13 13 13 14 16 16 20 21 21 22 23 22 22 22 20 21 21 23 22 22 23 23 22 23 22 18 18 17 17 18 20 19 19 19 20 19
5 5 5 5 5 5 10 11 11 12 13 13 14 13 14 16 16 18 21 22 17 17 20 20 21 21 20 22 22 21 20 21 21 20 20 20 18 20 20 20 21 20 20 20 20 21 19
5 5 5 5 5 8 11 11 12 12 13 14 13 14 14 16 16 17 17 12 13 15 18 20 21 21 21 21 19 20 20 20 20 19 20 18 20 22 20 20 20 19 18 18 18 19 20
5 5 6 4 7 10 11 11 12 13 13 14 13 14 14 16 16 15 13 12 14 15 16 19 19 20 20 21 18 18 17 16 19 19 18 19 21 21 20 19 19 19 18 17 17 19 19
5 5 5 5 10 10 11 11 12 13 13 14 14 14 14 16 16 14 13 14 14 15 13 16 19 21 21 20 19 18 18 17 18 18 18 19 19 19 18 19 18 18 18 18 18 18 16
5 5 5 7 10 10 11 11 12 13 14 14 14 14 15 15 14 13 14 15 15 15 11 17 19 22 19 18 18 17 18 18 15 16 18 18 17 16 17 17 18 19 17 17 18 17 16
4 4 5 9 10 10 11 11 12 12 14 15 15 14 15 15 14 13 14 14 15 11 11 17 18 18 17 17 17 16 15 15 15 16 16 16 17 17 16 17 18 17 17 16 15 14 12
4 4 7 9 10 10 11 11 12 12 15 15 15 15 15 15 13 14 14 13 11 10 16 16 16 17 16 15 16 15 14 12 11 13 11 13 16 15 16 15 16 15 14 10 12 11 11
4 5 5 9 10 11 11 11 12 13 16 16 16 16 15 15 14 14 15 11 10 14 15 16 16 17 15 14 15 14 13 11 12 11 11 10 13 13 15 15 15 14 15 10 11 12 13
4 5 6 9 10 10 11 11 13 14 16 17 16 16 16 15 15 15 10 6 9 14 15 15 15 14 13 14 15 13 12 11 12 11 11 8 11 13 14 15 14 15 13 14 14 11 11
4 5 7 9 10 10 11 12 13 14 16 16 16 15 15 15 15 15 7 10 14 15 15 15 14 13 11 12 13 13 12 12 12 12 11 10 7 12 13 15 15 14 14 13 10 9 7
4 5 8 9 10 10 11 12 13 15 16 16 15 11 16 16 16 8 6 12 14 14 15 13 13 12 13 12 13 13 11 12 11 12 12 11 8 10 12 13 13 13 11 11 10 9 9
6 8 9 9 10 11 11 13 13 15 16 15 12 11 17 16 8 5 9 13 14 13 13 13 13 12 13 12 12 13 11 11 10 11 11 11 9 8 11 13 14 14 12 8 8 10 11
4 8 9 9 10 11 11 13 14 15 16 15 10 9 16 16 7 7 11 12 12 12 12 13 11 12 12 12 12 12 11 11 10 10 10 10 8 8 11 12 11 11 12 12 9 9 11
5 8 9 10 10 10 12 13 14 16 16 15 8 9 9 6 7 9 10 12 12 12 11 11 11 10 10 10 10 10 10 11 10 11 12 10 9 9 8 9 9 10 12 11 12 11 11
5 8 9 10 10 10 12 14 15 16 16 16 5 7 9 10 9 9 10 12 11 11 12 10 10 9 10 9 10 9 8 9 10 11 10 9 8 10 9 10 11 11 11 11 12 12 12
6 8 9 10 10 11 12 15 15 16 16 14 8 8 6 8 10 9 8 10 11 11 10 10 9 9 9 9 9 8 8 9 9 9 9 8 8 8 9 12 13 10 11 12 13 13 12
6 8 9 10 10 10 13 15 16 16 16 12 10 10 7 7 8 8 9 10 10 9 9 9 9 8 8 9 8 7 7 8 9 8 8 8 7 9 10 11 10 11 10 11 11 11 12
6 8 9 9 9 10 13 14 16 16 16 16 12 10 6 7 8 9 10 10 9 10 9 9 8 8 10 8 7 7 6 7 7 7 8 8 7 8 9 10 11 10 10 11 10 12 10
7 8 8 9 9 11 13 14 15 16 17 17 13 11 5 6 7 9 9 9 9 9 9 9 8 8 7 8 9 9 9 9 10 10 9 7 7 7 8 9 10 11 10 9 10 11 11
7 8 8 9 9 11 12 14 15 17 17 17 13 13 8 6 6 8 8 8 7 7 7 8 8 7 6 6 7 8 7 9 9 9 9 8 6 5 8 10 10 10 8 10 10 12 10
7 7 7 8 9 11 12 13 15 16 16 16 12 12 10 3 4 7 7 7 6 4 5 5 6 5 5 5 6 4 5 8 6 8 7 7 7 8 8 8 9 8 8 11 11 10 9
7 7 7 8 9 10 12 13 14 15 16 17 9 13 10 2 4 6 6 6 6 3 2 4 4 3 3 3 3 2 3 5 5 7 7 6 7 7 7 7 9 9 9 10 9 9 10
7 7 7 8 9 10 11 12 13 14 15 16 9 11 10 6 5 7 7 7 8 7 3 2 4 4 2 1 1 2 4 2 5 5 6 6 6 6 7 7 9 9 9 10 10 9 9
Height
820 821 818 817 816 813 811 808 805 803 800 798 796 792 788 784 781 779 775 773 770 769 766 766 766 763 762 766 766 761 759 756 753 751 750 751 755 759 764 760 757 760 751 747 743 744 742
817 819 818 815 815 814 810 807 804 801 800 797 794 791 787 783 780 777 774 771 769 768 767 766 765 765 764 773 763 761 758 755 752 750 749 750 750 750 756 757 760 750 751 752 749 745 743
818 815 819 814 813 813 810 806 803 801 799 797 792 790 786 782 779 776 773 771 770 768 767 765 765 765 766 769 762 759 757 754 750 749 748 746 746 749 751 758 750 749 755 753 754 751 750
818 814 816 816 811 812 808 805 802 800 798 795 791 789 784 781 778 775 772 771 771 768 768 766 764 766 769 764 761 757 752 747 746 745 745 744 745 748 751 750 755 760 763 775 758 756 748
817 814 815 815 811 810 806 804 803 799 796 794 791 788 783 780 777 774 771 770 770 768 767 767 766 766 773 764 759 757 753 748 742 741 742 743 744 754 756 767 779 779 782 773 771 760 755
815 814 815 814 810 807 806 805 802 799 795 793 789 786 783 779 777 773 771 771 771 769 767 768 768 774 769 770 762 759 750 745 745 742 746 748 760 771 776 782 797 786 784 783 781 768 768
817 814 812 814 808 806 804 804 802 799 795 790 787 785 782 779 778 773 771 771 776 778 771 778 779 779 774 767 764 760 751 747 747 752 767 762 778 783 778 774 772 775 780 781 774 764 771
816 813 810 813 809 804 803 803 800 798 794 789 786 784 782 779 779 774 774 778 784 785 786 778 777 775 771 770 771 762 759 760 765 775 768 777 781 769 769 772 775 778 787 788 778 767 766
814 812 809 813 807 803 804 802 799 795 793 790 786 783 780 778 779 777 778 783 783 784 789 784 780 777 775 772 780 779 773 773 773 778 780 781 776 770 771 779 782 781 789 788 787 772 767
812 807 813 808 805 804 803 801 797 794 793 790 786 782 780 777 782 781 783 784 783 784 811 806 791 783 778 773 784 781 778 778 778 785 780 783 780 778 782 783 783 788 778 779 777 778 792
809 806 811 805 804 804 803 799 797 793 791 790 785 782 780 781 781 782 785 784 784 784 855 807 798 788 787 791 796 791 785 779 796 792 785 796 794 794 792 792 784 784 777 776 773 779 784
809 808 805 804 804 804 801 800 795 794 791 788 784 782 781 784 782 785 783 784 786 825 863 814 804 804 803 802 802 800 799 788 793 794 795 801 791 796 798 787 784 781 780 781 785 790 814
810 804 802 805 805 802 800 798 796 795 791 786 785 784 784 783 786 786 785 787 826 855 820 824 818 810 813 816 813 813 817 817 830 823 831 817 804 801 797 797 789 792 798 828 818 821 828
806 802 803 805 805 800 799 798 798 794 789 787 787 786 786 785 786 786 786 804 851 833 829 821 819 815 825 823 821 826 826 838 834 838 841 844 825 817 810 809 808 803 800 833 832 824 813
803 802 803 803 804 799 799 799 797 792 787 787 788 787 787 787 787 787 797 854 854 833 829 829 824 831 835 828 825 829 840 845 844 844 849 863 838 821 813 809 807 804 814 808 811 824 829
800 803 802 803 802 799 800 798 795 790 787 789 788 788 789 789 788 788 817 843 834 828 827 828 835 838 847 840 835 835 844 848 847 843 844 852 867 826 818 810 809 812 810 818 834 853 867
800 802 802 801 800 802 799 797 792 788 789 790 789 795 793 790 789 803 848 837 832 830 828 835 840 845 843 846 841 842 854 851 850 846 843 848 863 841 825 823 825 821 830 829 833 847 851
800 803 800 801 802 800 798 794 790 789 789 791 792 806 794 791 813 836 843 831 830 836 834 837 841 844 846 848 846 847 856 857 853 850 852 849 859 862 838 825 822 820 828 849 855 840 834
802 801 799 802 801 799 796 792 789 790 789 791 800 804 796 793 838 846 836 838 839 840 843 841 849 848 848 850 852 852 856 857 855 854 856 853 864 866 843 833 834 835 830 832 844 841 828
801 800 802 802 800 799 795 791 789 789 789 791 801 820 812 811 827 834 841 843 844 843 848 849 853 853 855 858 858 861 864 859 858 855 850 852 859 863 875 857 855 849 834 833 827 832 826
799 800 802 801 799 798 794 790 789 789 789 791 806 828 826 837 840 839 839 843 848 850 849 855 858 863 863 869 864 871 872 868 859 857 857 860 866 857 854 847 844 841 839 831 824 820 823
799 801 802 799 799 797 792 789 789 788 789 791 810 819 830 839 836 842 850 853 852 855 856 860 864 865 865 870 872 874 876 871 869 865 864 865 866 866 854 837 834 845 837 829 823 820 822
800 800 800 800 799 797 792 789 787 787 789 793 804 808 818 847 847 850 856 854 857 859 865 864 865 868 869 869 871 871 872 871 871 874 871 870 872 860 853 844 842 838 845 838 835 832 827
801 800 801 801 799 798 792 789 786 786 788 790 799 806 827 855 850 852 853 856 860 860 865 867 867 868 866 865 865 868 871 873 873 872 872 871 871 867 861 848 844 848 847 844 843 834 834
801 800 802 802 800 798 794 792 790 787 789 792 800 805 826 857 857 857 858 863 864 864 865 868 869 869 865 864 867 867 871 867 865 865 866 872 874 876 871 858 852 847 852 856 853 841 844
801 802 804 802 802 799 797 796 794 792 795 797 803 807 816 843 868 862 865 866 873 872 873 871 869 867 866 874 875 879 891 873 872 869 868 872 877 885 869 860 859 859 861 853 850 843 845
802 804 805 804 804 802 800 800 798 797 799 801 809 812 817 849 866 864 869 873 873 878 882 880 878 877 874 885 886 903 898 881 890 884 881 881 877 873 873 866 863 868 861 848 849 861 855
804 807 807 807 807 805 804 803 802 803 804 804 816 817 819 854 870 868 869 873 875 880 892 885 888 888 891 900 905 913 907 897 899 889 886 894 887 885 878 879 872 867 860 858 867 861 856
806 808 810 809 808 809 807 807 806 806 809 808 821 826 826 840 872 873 875 876 875 876 881 888 893 895 899 910 914 911 905 910 902 904 891 898 894 892 886 880 870 869 867 864 864 863 857
Wind_Speed
7 9 9 9 9 9 10 11 12 11 10 12 14 16 19 19 17 21 20 16 10 9 5 6 9 7 3 4 2 14 16 21 19 14 3 3 1 2 2 3 4 5 2 3 8 10 7
6 7 8 7 9 10 11 12 11 10 12 12 14 17 19 19 17 20 18 12 7 5 4 6 10 4 2 4 11 18 18 23 21 10 4 4 3 4 3 3 2 4 4 6 4 8 6
6 6 8 8 9 11 12 12 10 10 11 14 14 18 19 14 17 17 11 8 5 4 4 6 8 3 4 3 16 15 18 24 18 10 3 5 3 2 1 6 3 4 4 6 8 7 3
7 5 7 7 8 11 11 12 10 10 12 14 14 17 18 12 16 14 7 5 6 6 5 6 3 1 2 6 17 21 27 24 15 9 5 8 5 1 1 4 7 5 5 5 4 11 5
7 6 7 8 8 10 10 11 12 10 12 13 14 17 16 12 16 11 4 5 6 3 3 9 4 3 4 11 20 20 24 15 18 4 3 3 3 3 5 3 4 7 2 3 8 7 4
7 6 7 8 8 9 10 11 10 10 11 13 13 16 14 11 17 6 6 4 8 5 1 3 7 4 7 6 17 26 36 13 3 5 5 6 5 4 4 6 1 4 4 5 3 6 7
8 7 8 9 8 9 7 10 10 11 12 11 12 14 13 9 15 8 9 5 5 7 13 6 2 3 4 14 6 29 37 10 7 8 4 4 7 3 5 4 3 4 3 2 4 3 4
10 10 8 10 8 6 6 8 9 11 12 10 12 12 13 8 8 4 5 5 2 1 6 5 3 4 7 5 6 24 32 7 7 5 5 7 5 2 6 6 6 6 5 4 5 5 2
12 10 9 10 6 5 7 8 9 10 12 10 11 11 13 5 3 13 14 5 3 1 5 5 5 4 7 5 5 16 11 6 6 6 6 5 5 5 6 8 7 3 5 5 6 4 4
10 8 11 7 4 6 7 8 10 10 11 8 10 11 13 3 2 3 3 3 2 2 5 10 9 8 16 3 6 13 17 2 8 6 5 6 8 7 8 6 5 3 6 6 8 2 2
9 7 9 5 3 5 7 9 11 11 10 7 9 12 7 7 3 3 2 2 1 2 5 8 7 7 8 9 5 15 17 4 5 5 3 2 9 9 8 6 7 3 9 5 4 1 3
9 8 5 3 4 4 7 9 11 12 8 5 9 14 5 2 7 3 3 2 2 6 1 6 5 6 7 7 7 8 10 7 3 4 8 4 5 5 4 10 4 8 6 5 4 3 4
9 6 3 4 5 4 6 10 11 11 4 5 8 10 12 8 2 3 1 3 5 7 4 7 4 6 5 7 7 8 10 20 8 8 9 7 4 6 10 6 7 12 6 4 6 5 2
7 4 5 4 4 5 7 10 11 9 2 5 6 7 8 7 4 2 3 6 9 3 3 4 5 2 6 8 4 12 4 6 10 5 2 6 6 8 13 4 5 6 2 4 3 1 4
5 4 5 3 5 5 8 10 10 7 2 4 2 5 7 9 3 2 6 7 5 1 3 5 2 6 7 6 4 6 7 5 7 7 5 6 4 5 8 4 4 6 5 2 2 3 2
4 5 4 3 5 6 8 9 8 5 2 5 2 4 12 6 4 5 6 5 2 2 3 3 3 4 6 8 6 4 5 6 7 6 1 2 5 3 8 5 6 5 3 3 4 3 3
5 5 3 2 4 7 7 8 7 4 3 2 1 4 17 2 5 7 5 3 4 5 4 4 3 4 3 4 4 4 6 2 6 7 4 2 3 7 5 5 3 5 4 4 3 3 1
5 5 2 2 4 6 7 6 4 3 4 2 4 3 16 5 5 3 3 2 3 6 8 5 4 4 3 6 5 4 3 5 10 4 3 3 2 4 4 7 7 1 3 4 3 4 2
5 5 3 2 3 6 6 4 3 2 4 3 3 0 8 2 4 3 4 5 4 5 6 4 6 5 3 4 4 5 4 4 9 6 4 4 2 4 7 5 6 4 4 5 2 1 3
5 4 3 1 2 5 6 3 1 2 4 2 4 3 5 5 2 7 6 4 4 4 5 6 4 5 5 6 6 3 6 3 5 5 9 2 1 3 4 5 2 7 14 14 3 2 2
4 5 3 1 2 5 5 3 1 4 5 3 4 1 2 2 5 6 4 3 3 4 4 8 4 5 3 4 3 3 5 5 4 8 6 3 1 2 9 13 10 9 9 11 1 6 2
5 6 3 2 3 5 6 1 4 6 7 7 4 5 4 2 2 7 6 3 3 3 5 4 4 4 5 4 3 2 4 1 2 6 6 5 3 4 4 2 7 2 11 11 11 12 2
7 6 5 4 5 7 6 2 4 10 5 5 4 4 5 4 3 4 2 3 2 6 5 6 1 3 6 1 5 8 8 5 3 3 4 4 3 6 4 7 1 2 9 10 7 18 10
8 7 7 6 7 8 8 7 5 9 9 12 8 6 5 3 4 3 4 4 5 2 6 2 4 4 2 6 2 5 4 3 4 6 4 4 4 2 4 5 3 3 11 10 13 17 21
10 9 8 8 8 9 11 13 14 17 21 26 11 5 4 4 3 7 8 5 4 5 4 3 5 2 10 4 3 3 3 2 3 3 1 1 1 3 2 2 3 3 8 9 8 7 18
12 11 10 10 10 11 12 13 16 18 17 19 20 13 9 7 4 2 4 3 2 2 4 4 4 9 6 3 4 3 1 3 3 5 3 3 3 2 2 2 2 4 15 16 6 3 18
15 14 14 14 12 13 14 15 15 14 16 16 14 13 12 5 4 3 4 3 3 3 3 3 6 8 5 4 3 3 2 3 2 4 4 4 3 3 3 2 2 9 19 12 2 5 17
18 17 16 15 13 13 15 16 17 18 20 22 15 9 11 4 5 10 5 4 2 3 3 3 3 5 4 4 3 2 2 2 3 4 2 2 4 2 3 3 3 11 10 5 6 13 12
21 19 17 16 14 14 16 16 16 16 15 24 22 29 24 15 5 21 22 19 10 3 5 5 4 2 2 3 1 1 1 3 2 2 4 2 2 2 1 3 2 2 9 8 6 8 9
Wind_Direction
273 282 293 301 306 314 318 321 323 325 328 326 330 336 334 332 334 333 334 333 330 332 348 357 360 354 117 60 306 343 350 352 347 350 231 205 194 161 239 272 307 197 248 296 284 298 254
274 290 292 298 308 310 316 319 321 325 328 327 333 337 338 335 336 335 333 337 346 350 11 14 5 31 58 80 345 335 338 339 340 334 313 203 205 234 257 267 179 287 291 280 313 281 291
266 277 292 296 301 311 315 321 324 324 328 331 336 339 341 336 337 335 328 339 353 25 4 4 354 20 59 216 344 353 341 332 321 313 280 262 230 101 233 304 243 268 323 359 11 319 37
261 275 277 301 310 308 319 323 326 322 327 330 337 339 344 337 340 331 309 331 343 337 335 329 31 102 136 345 359 5 349 331 328 317 252 284 229 146 181 302 356 15 47 16 334 12 340
262 280 280 293 302 315 324 325 321 328 329 333 338 342 345 342 341 322 276 3 15 5 59 42 53 51 323 337 357 347 348 311 319 329 311 303 103 67 17 30 16 7 308 339 341 7 353
254 276 275 292 310 320 323 322 324 328 335 339 343 345 348 351 350 291 244 332 36 43 353 31 16 41 351 300 331 351 351 356 316 326 31 47 48 57 29 44 333 316 5 354 325 326 46
252 262 282 295 312 316 326 322 322 332 336 344 347 350 350 352 3 341 279 298 19 357 29 106 260 159 262 320 38 353 351 348 11 55 34 14 66 38 22 27 48 99 76 329 286 296 102
250 264 285 294 306 323 323 320 327 336 341 349 352 353 351 341 351 13 46 75 63 211 76 12 323 309 319 327 0 353 5 45 33 30 359 28 57 21 115 46 54 57 32 339 294 288 32
252 263 278 288 309 328 317 323 332 345 347 351 358 359 356 323 359 53 76 74 65 82 93 336 284 340 328 21 51 358 13 318 39 30 1 104 0 34 71 33 33 15 24 310 262 304 306
251 267 270 288 316 322 318 327 334 347 346 348 7 10 8 98 129 48 57 71 83 83 75 330 342 359 352 23 42 17 355 255 23 20 360 63 341 49 42 29 357 4 322 282 287 350 276
257 256 269 295 313 317 322 332 333 346 348 356 22 17 39 53 113 73 317 138 70 73 57 294 328 330 358 70 306 351 353 18 34 334 30 342 31 15 34 325 319 306 310 292 320 7 98
247 252 273 272 287 307 331 327 336 339 350 24 45 37 58 72 56 48 94 123 54 43 270 332 352 352 26 28 13 346 16 35 69 25 24 22 321 47 299 314 336 297 339 16 34 48 49
241 253 262 268 287 321 330 329 331 334 3 62 53 44 45 54 46 18 69 49 42 89 287 339 346 345 42 0 28 18 25 43 38 9 16 336 18 340 10 350 352 9 31 357 5 12 223
238 259 278 265 293 326 329 328 326 334 77 93 71 38 35 39 28 18 59 56 70 258 352 345 354 328 46 3 24 27 41 32 22 51 24 23 334 20 334 354 288 305 40 131 225 314 290
227 252 273 267 293 330 325 325 331 332 164 149 84 27 29 11 27 45 71 53 169 347 299 340 5 38 353 353 29 69 53 35 22 15 36 7 286 323 328 327 359 329 30 12 277 25 49
208 252 261 270 307 325 319 328 333 343 176 192 319 354 24 24 61 64 71 120 96 348 20 52 84 24 27 339 29 53 40 354 351 360 128 320 312 323 307 20 5 79 285 35 12 42 335
208 248 225 268 317 309 326 333 354 29 129 163 67 56 3 47 41 53 96 93 90 352 82 63 54 50 36 7 10 58 6 73 350 323 36 54 115 303 356 26 337 351 15 21 110 97 160
207 217 201 284 297 322 329 346 18 73 137 156 94 52 356 58 50 34 62 84 104 7 37 62 80 69 35 15 30 72 79 13 333 319 17 329 155 296 275 289 4 315 69 91 73 333 251
218 194 190 255 312 332 343 1 39 81 158 158 89 139 9 43 104 55 55 58 75 35 16 67 41 46 9 39 77 58 59 8 2 41 27 329 349 337 346 15 5 10 333 9 178 256 237
210 186 214 272 336 350 360 10 57 101 136 117 86 54 351 38 55 102 114 63 100 41 47 63 49 51 32 38 17 73 15 343 325 10 360 36 10 168 218 257 261 299 313 324 231 241 281
187 175 193 199 356 356 7 25 133 146 133 110 39 152 184 56 8 81 87 74 64 48 65 31 52 49 9 39 50 54 2 331 328 12 8 59 310 300 275 262 266 282 316 304 265 265 232
168 166 165 96 30 2 357 63 152 146 144 84 118 128 34 82 76 63 22 36 98 88 34 27 68 346 32 83 86 320 19 317 347 334 3 1 329 334 287 340 328 240 12 16 34 10 264
158 153 134 99 48 22 22 34 164 169 153 103 114 88 100 339 46 74 351 141 114 113 30 54 4 93 53 123 203 221 205 246 286 358 316 10 349 350 287 340 186 356 359 12 360 29 10
150 141 123 96 56 41 66 58 107 167 184 131 122 107 84 22 76 92 90 79 89 50 118 33 49 74 281 320 260 74 102 236 265 273 223 315 339 320 295 331 50 343 18 7 350 37 23
143 129 119 95 63 60 89 84 92 108 125 122 110 104 107 103 90 63 74 92 56 47 79 83 22 357 309 17 54 47 12 47 342 257 167 179 35 332 27 322 297 21 11 349 352 0 19
133 121 110 91 74 78 91 97 98 110 121 107 86 95 102 125 355 12 88 59 115 53 22 5 350 1 37 59 52 65 95 327 354 359 7 76 78 116 341 334 64 19 328 323 294 21 4
130 120 106 93 85 89 95 97 103 114 118 114 81 93 88 100 7 36 93 127 99 84 89 349 349 359 27 28 56 49 331 307 16 1 335 348 1 11 328 319 351 4 330 314 63 324 320
129 121 108 95 89 89 98 100 104 110 119 120 64 80 105 95 32 44 44 68 63 60 105 275 45 2 29 58 75 298 52 332 11 343 30 33 331 347 323 347 48 16 344 41 303 301 313
128 120 108 97 88 94 104 103 106 114 123 124 79 97 102 80 139 75 67 55 61 124 131 27 136 151 160 90 39 136 10 11 46 338 346 360 169 276 249 250 268 300 272 282 296 308 315